Lapse_Rate
3.5 3.8 3.7 3.4 3.7 3.3 3.2 3.1 3.0 3.3 3.6 3.7 3.3 2.6 2.3 2.0 2.0 1.7 1.3 1.0 0.7 0.3 -0.1 0.4 0.1 -0.1 4.2 8.0 8.0 5.8 2.9 3.8 7.1 9.3 8.7 8.2 7.6 7.3 6.5 6.5 6.8 6.5 6.5 7.0 7.2 7.2 7.1
3.5 3.4 3.6 3.3 3.4 3.6 3.4 3.3 3.1 3.2 3.5 3.6 3.0 2.8 2.3 2.3 2.2 1.8 1.6 1.4 1.0 0.5 0.1 -0.0 0.3 0.0 6.7 6.8 9.7 9.3 9.6 9.6 9.5 9.1 8.7 8.6 7.9 8.0 7.1 6.7 6.5 6.9 6.8 6.7 7.0 7.0 7.1
3.6 3.0 3.7 3.5 3.1 3.6 3.6 3.3 3.3 3.2 3.3 3.4 2.9 2.7 2.5 2.7 2.3 2.1 1.9 1.5 1.3 0.3 0.1 0.0 0.2 4.2 8.2 7.4 9.6 9.7 9.8 9.4 9.6 9.2 8.4 8.7 8.6 7.8 7.5 6.5 7.4 7.0 6.5 6.5 6.5 6.7 6.6
4.3 3.9 3.4 3.5 3.3 3.3 3.4 3.4 3.1 3.3 3.2 3.1 2.9 2.6 2.6 2.5 2.5 2.3 2.1 1.8 1.2 0.6 -0.0 0.5 0.6 6.1 7.6 9.2 9.6 9.3 9.7 9.3 9.6 9.5 9.1 9.1 8.9 8.0 7.4 7.6 7.0 6.5 6.5 6.5 6.5 6.5 6.6
4.4 4.0 3.8 3.4 3.1 3.2 3.1 3.2 3.3 3.5 3.2 2.9 2.9 2.4 2.5 2.5 2.4 2.1 2.1 1.9 1.6 1.1 0.7 1.0 4.0 7.3 7.3 7.2 8.6 9.5 9.6 8.7 9.0 9.1 9.1 9.2 8.5 7.5 7.3 6.5 6.5 6.5 6.5 6.5 6.5 6.5 6.5
4.2 4.1 3.6 3.7 3.2 3.2 3.3 3.2 3.4 3.5 3.4 3.1 3.0 2.6 2.0 2.3 2.3 2.2 2.4 2.0 3.8 1.6 3.1 6.6 9.0 7.7 8.2 7.8 8.8 9.1 9.5 9.2 8.4 8.3 8.0 7.7 7.3 6.5 6.5 6.5 6.5 6.5 6.5 6.5 6.5 6.5 6.5
4.7 4.2 3.9 3.5 3.6 3.4 3.6 3.5 3.5 3.9 3.4 3.2 2.9 2.5 2.5 2.4 2.8 2.7 2.8 6.5 7.9 7.6 8.0 7.6 7.6 7.6 7.9 8.9 9.3 8.8 9.2 8.7 8.4 7.7 6.5 7.0 6.5 6.5 6.5 6.5 6.5 6.5 6.5 6.5 6.5 6.5 6.5
4.6 4.6 4.3 4.1 3.8 3.7 3.6 3.8 3.4 3.6 3.2 3.1 2.4 2.0 2.4 2.2 2.8 2.8 3.5 6.8 8.2 7.5 7.0 8.1 8.2 8.3 8.7 8.8 7.5 8.2 9.1 7.4 7.0 6.5 6.5 6.5 6.5 6.5 6.5 6.5 6.5 6.5 6.5 6.5 6.5 6.5 6.5
4.4 4.0 4.2 4.6 4.4 4.2 3.9 3.9 3.7 3.3 2.8 2.5 2.5 2.0 1.8 1.7 2.4 3.3 4.5 6.7 8.2 8.5 6.9 7.5 8.2 8.0 8.1 8.5 7.4 7.5 8.3 7.7 6.5 6.5 6.5 6.5 6.5 6.5 6.5 6.5 6.5 6.5 6.5 6.5 6.5 6.5 6.5
4.1 3.8 3.9 4.3 4.7 4.5 4.1 4.2 4.2 3.1 2.2 2.3 1.9 1.2 2.5 2.2 3.8 5.4 6.3 9.2 8.8 7.1 6.5 6.5 6.8 7.5 8.2 8.1 6.7 8.6 8.6 7.6 6.6 6.5 6.5 6.5 6.5 6.5 6.5 6.5 6.5 6.5 6.5 6.5 6.5 6.5 6.5
4.1 3.9 3.6 3.7 4.5 4.7 4.9 4.5 3.5 2.5 1.9 1.8 2.0 1.9 1.8 4.4 5.7 6.2 7.3 8.6 7.8 6.4 6.5 6.5 6.8 8.8 8.2 7.2 7.2 7.3 8.7 7.7 6.5 6.5 6.5 6.5 6.5 6.5 6.5 6.5 6.5 6.5 6.5 6.5 6.5 6.5 6.5
2.9 3.0 3.5 3.7 4.1 4.1 4.3 4.5 3.1 2.4 1.9 1.8 2.0 2.8 4.2 5.0 4.6 7.0 8.0 8.4 7.7 6.5 6.5 6.5 6.8 6.5 6.5 6.9 6.9 7.4 7.4 8.0 7.5 6.5 6.5 6.5 6.9 6.5 6.5 6.5 6.5 6.5 6.5 6.5 6.5 6.5 6.5
3.1 2.9 2.8 2.6 4.0 3.8 3.9 2.8 3.5 3.0 2.3 2.1 3.3 5.1 5.3 6.8 6.7 7.0 7.7 7.8 6.5 6.5 6.5 6.5 6.5 6.5 6.5 6.5 6.5 6.5 6.5 6.5 6.5 6.5 6.5 6.5 6.5 6.5 6.5 6.5 6.5 6.5 6.5 6.5 6.5 6.5 6.5
2.8 3.0 2.6 2.9 3.6 3.9 3.1 2.7 2.6 5.0 5.0 5.6 5.5 6.0 5.7 6.3 6.3 7.3 8.2 6.6 6.5 6.5 6.5 6.5 6.5 6.5 6.5 6.5 6.5 6.5 6.5 6.5 6.5 6.5 6.5 6.5 6.5 6.5 6.5 6.5 6.5 6.5 6.5 6.5 6.5 6.5 6.5
4.7 3.8 4.1 4.1 3.1 2.7 2.7 3.2 5.6 5.7 5.8 5.9 6.3 6.2 6.5 6.9 7.4 8.2 7.0 6.5 6.5 6.5 6.5 6.5 6.5 6.5 6.5 6.5 6.5 6.5 6.5 6.5 6.5 6.5 6.5 6.5 6.5 6.5 6.5 6.5 6.5 6.5 6.5 6.5 6.5 6.5 6.5
4.4 3.6 2.7 2.7 3.7 3.6 5.1 5.7 5.9 6.3 6.5 6.4 6.6 7.3 7.2 7.6 7.7 7.3 6.6 6.5 6.5 6.5 6.5 6.5 6.5 6.5 6.5 6.5 6.5 6.5 6.5 6.5 6.5 6.5 6.5 6.5 6.5 6.5 6.5 6.6 6.5 6.5 6.5 6.5 6.5 6.5 6.5
3.4 2.9 3.5 4.4 4.9 5.4 6.2 6.5 6.4 6.4 6.0 6.8 7.2 7.1 7.2 7.9 7.7 7.2 6.5 6.5 6.5 6.9 6.9 6.5 6.5 6.5 6.5 6.5 6.5 6.5 6.5 6.5 6.5 6.5 6.5 6.5 6.5 6.5 6.5 6.5 6.5 6.5 6.5 6.5 6.5 6.5 6.5
4.7 5.1 5.6 6.0 5.9 5.7 6.1 6.3 6.3 6.3 6.5 6.6 7.2 6.5 7.4 7.7 6.6 6.6 6.5 6.5 6.4 6.6 7.0 6.5 6.5 6.5 6.5 6.5 6.5 6.5 6.5 6.5 6.9 6.6 6.5 6.5 6.5 6.5 6.5 6.5 6.5 6.5 6.5 6.5 6.5 6.5 6.5
5.9 6.1 6.1 6.0 5.9 6.1 6.5 6.7 6.9 7.0 6.8 6.9 6.8 6.9 7.0 6.5 6.5 6.5 6.5 6.5 6.6 6.5 6.5 6.5 6.5 6.5 6.5 6.5 6.5 6.5 6.5 6.7 7.0 6.5 6.5 6.5 6.5 6.5 6.5 6.5 6.5 6.5 6.5 6.5 6.5 6.5 6.5
6.4 6.2 6.4 6.7 7.0 7.2 7.3 7.1 7.2 7.1 6.9 7.4 6.6 6.5 6.7 6.9 7.3 6.5 6.5 6.5 6.5 6.9 6.5 6.7 6.5 6.6 6.5 6.5 6.5 6.5 6.5 6.5 6.9 6.7 6.9 6.7 6.5 6.5 6.5 6.5 6.5 6.5 6.5 6.5 6.5 6.5 6.5
6.4 7.2 7.2 7.4 7.5 7.5 7.4 7.3 6.9 6.9 6.9 7.4 6.8 6.7 7.1 6.5 6.5 6.5 6.5 6.5 6.5 6.5 6.7 6.9 6.5 6.5 6.5 6.5 6.5 6.5 6.5 6.5 6.6 6.8 6.7 6.5 6.5 6.5 6.5 6.5 6.5 6.5 6.5 6.5 6.5 6.5 6.5
6.1 6.2 7.0 6.8 6.8 7.0 7.2 7.1 7.1 7.1 8.4 6.3 5.7 6.7 7.4 6.8 6.9 6.5 6.5 6.5 6.5 6.5 6.5 6.5 6.5 6.5 6.5 6.5 6.5 6.5 6.5 6.5 6.5 6.5 6.5 6.5 6.5 6.5 6.5 6.5 6.5 6.5 6.5 6.5 6.5 6.5 6.5
7.3 7.1 7.1 7.2 7.2 7.2 7.0 6.8 7.0 7.7 7.3 4.9 6.9 8.0 7.5 6.7 6.5 6.5 6.5 6.5 6.5 6.5 6.7 6.9 6.6 6.5 6.5 6.5 6.9 7.0 7.1 7.0 6.6 6.5 6.5 6.5 6.5 6.5 6.5 6.5 6.5 6.5 6.5 6.5 6.5 6.5 6.5
7.2 7.3 7.2 7.3 7.2 7.1 6.7 6.8 7.3 7.7 8.3 8.2 8.6 8.3 7.0 6.5 6.5 6.5 6.5 6.5 6.5 6.5 6.5 6.8 7.0 6.5 7.1 8.1 7.8 7.6 7.3 7.0 6.8 6.6 6.7 6.5 6.5 6.5 6.5 6.5 6.5 6.5 6.5 6.5 6.5 6.5 6.5
7.4 7.3 7.4 7.4 6.8 6.6 6.7 6.6 6.9 7.4 7.5 9.3 9.2 8.4 7.3 6.5 6.6 6.5 6.5 6.5 6.8 6.9 6.6 6.7 7.2 7.7 8.1 7.4 6.5 6.5 6.5 6.5 6.5 6.5 6.5 6.5 6.5 6.5 6.5 6.5 6.5 6.5 6.5 6.5 6.5 6.5 6.5
6.9 7.0 7.0 7.0 7.1 6.8 6.7 6.9 7.1 7.5 7.1 9.2 9.2 9.3 7.9 6.6 6.6 7.2 6.6 6.8 6.5 6.5 6.5 6.8 7.9 8.3 7.8 6.5 6.5 6.5 6.5 6.5 6.5 6.5 6.5 6.5 6.5 6.5 6.5 6.5 6.5 6.5 6.5 6.8 6.5 6.5 6.5
7.0 7.1 7.1 7.0 7.1 7.2 6.9 6.8 7.1 7.1 6.9 8.6 9.1 8.7 8.5 6.9 7.6 7.6 6.6 6.7 7.2 6.8 6.5 6.7 7.0 7.0 7.6 6.5 6.5 6.5 6.5 6.5 6.5 6.5 6.5 6.5 6.5 6.5 6.5 6.5 6.5 6.5 6.5 6.9 6.5 6.5 6.6
7.1 7.1 6.8 6.7 7.0 7.0 6.7 6.6 6.5 6.6 7.0 9.0 9.1 9.5 8.4 7.5 7.7 8.2 8.1 7.3 7.3 7.1 6.5 6.8 6.8 6.9 6.5 6.5 6.5 6.5 6.5 6.5 6.5 6.5 6.5 6.5 6.5 6.5 6.5 6.5 6.5 6.8 6.7 6.5 6.5 7.0 6.9
6.8 6.6 6.8 6.7 6.8 6.9 7.0 6.9 6.7 6.7 7.1 7.8 8.7 9.3 9.8 7.8 7.9 9.0 8.9 9.0 8.7 8.4 7.5 7.0 6.8 6.8 6.7 6.5 6.5 6.5 6.5 6.5 6.5 6.5 6.5 6.5 6.5 6.5 6.5 6.5 6.4 6.9 6.8 7.4 7.6 7.2 7.1
Wind_Speed
32 31 30 28 27 26 26 25 23 23 22 20 18 16 14 11 9 8 9 12 15 17 15 19 18 18 12 9 18 11 9 9 7 13 13 12 11 13 18 15 17 19 19 20 16 18 21
34 33 32 30 29 29 28 26 25 24 23 22 20 19 17 14 11 9 9 13 16 19 18 15 16 16 8 17 8 7 6 8 13 13 16 17 14 14 16 16 18 18 17 18 21 19 20
36 35 34 33 31 31 29 28 26 24 23 23 23 22 19 16 11 9 11 12 16 18 21 17 13 8 11 21 15 18 12 14 15 15 16 15 16 16 12 14 20 16 19 20 20 20 23
36 35 35 34 32 32 30 29 28 26 25 24 23 20 18 15 11 9 12 13 16 19 17 18 9 8 9 14 8 15 13 13 8 7 10 10 9 11 17 17 21 19 21 18 18 22 22
37 36 36 35 35 34 33 31 29 29 26 26 25 23 19 15 12 10 12 14 19 18 14 10 6 8 12 3 10 10 5 9 6 7 7 8 7 13 13 14 15 16 18 21 21 19 8
38 38 38 37 35 34 33 31 30 29 27 27 27 25 21 18 13 10 10 13 13 7 7 11 10 8 12 14 2 2 6 7 9 11 12 11 7 12 13 13 15 17 17 17 19 16 16
38 38 38 37 36 34 33 31 29 28 28 27 26 22 18 16 11 7 6 6 6 6 12 13 11 8 2 7 5 13 12 13 11 12 16 17 14 15 18 18 21 21 22 24 22 22 22
36 36 36 36 35 35 34 33 31 28 27 27 26 23 17 9 8 5 2 5 3 3 10 25 22 22 23 13 13 17 9 14 15 17 17 18 20 21 20 20 21 22 24 22 21 21 20
34 34 33 34 35 35 34 33 30 28 29 29 26 23 17 15 3 2 6 9 7 6 8 20 25 23 18 14 19 17 13 17 20 19 19 21 18 17 21 19 17 19 19 18 23 20 22
35 33 31 33 34 33 32 32 28 31 31 30 29 23 13 13 4 3 4 5 6 7 5 11 11 7 13 8 8 19 11 9 15 20 19 17 21 24 22 22 19 23 17 21 22 19 17
29 33 34 34 29 29 29 30 31 35 35 34 28 22 21 17 2 5 5 8 8 2 4 2 13 8 12 13 4 10 7 8 13 15 7 9 6 5 10 11 11 20 15 16 20 19 16
32 32 28 29 30 30 30 28 35 39 39 35 30 26 22 6 2 4 11 8 3 4 9 8 10 12 13 15 11 8 7 7 7 10 14 17 17 14 12 10 12 16 13 17 18 15 14
36 37 34 31 33 32 31 32 34 34 35 33 30 25 13 3 5 8 7 6 4 5 1 7 9 9 15 12 13 11 12 12 9 9 13 15 17 16 15 16 13 14 13 8 8 11 17
34 32 32 32 30 25 24 31 34 31 31 28 24 19 5 3 8 9 6 5 6 12 13 5 5 9 11 10 9 11 8 12 12 15 10 13 13 10 10 8 8 12 13 8 14 14 17
29 26 24 23 28 34 36 35 33 31 31 29 23 4 2 4 9 2 6 3 5 6 6 9 4 6 11 11 5 4 10 11 10 12 12 8 11 14 8 8 10 8 12 14 13 19 16
28 30 34 35 36 36 33 34 36 34 32 28 7 7 7 13 16 6 4 2 4 4 3 4 7 4 8 12 10 8 6 4 3 10 11 8 13 8 16 19 12 11 11 8 8 15 22
38 38 39 37 36 36 33 35 37 37 35 27 7 4 5 9 6 5 2 3 3 3 3 2 3 4 3 4 5 7 3 4 7 9 9 8 6 11 16 13 17 12 13 8 2 8 10
36 36 35 35 35 34 33 34 36 35 36 18 5 4 3 0 5 3 4 5 4 9 2 3 3 6 6 5 8 10 10 9 4 10 12 13 8 15 19 21 24 22 21 17 11 16 9
33 30 33 32 31 29 28 30 32 34 28 6 4 4 3 2 4 5 5 8 5 5 8 5 5 5 5 7 5 9 13 8 9 8 7 7 3 9 16 17 19 19 24 23 22 20 22
27 26 26 27 26 25 25 26 29 30 17 2 4 4 2 1 2 8 10 9 7 3 3 3 6 4 6 9 10 7 8 5 6 3 3 1 8 14 14 21 21 25 27 26 23 15 16
28 25 24 25 23 24 24 27 29 23 7 1 3 3 5 5 3 4 8 6 11 7 6 4 5 10 10 8 12 14 14 13 10 8 8 10 14 18 22 25 23 26 29 28 27 26 25
21 22 20 19 21 23 26 27 25 16 11 3 3 3 3 7 9 8 7 8 11 12 7 8 7 5 2 2 7 12 14 12 12 15 18 17 17 20 24 27 28 30 31 27 29 29 28
20 20 20 20 21 24 26 24 17 10 9 3 1 1 3 4 7 8 9 9 11 9 8 7 9 10 11 11 10 9 9 11 13 15 16 14 13 15 21 23 23 23 22 25 26 27 26
20 18 19 20 24 25 21 19 16 11 5 4 4 4 3 4 6 8 11 13 12 9 10 9 5 7 8 8 9 11 13 16 18 21 17 18 17 13 16 18 22 23 22 27 24 21 19
20 22 22 23 25 23 21 17 14 11 11 6 2 2 2 3 8 8 8 8 7 4 5 6 8 7 6 7 7 8 11 14 20 22 21 18 16 14 15 16 22 29 24 24 18 21 18
24 24 23 21 21 21 19 15 13 10 13 1 3 3 2 0 7 10 9 10 7 7 9 11 8 4 3 5 6 10 6 12 8 11 8 14 12 13 12 12 18 20 24 20 23 17 19
25 24 22 21 20 19 17 15 12 9 10 3 3 5 2 1 1 4 7 6 5 4 3 5 5 7 9 7 9 12 13 15 16 19 18 13 10 10 13 15 14 17 21 15 17 13 6
22 23 22 21 18 17 16 14 10 8 7 4 3 5 3 2 1 2 2 4 3 3 5 1 2 5 4 6 5 8 9 12 14 19 17 13 7 8 7 8 13 20 21 12 12 16 14
22 22 19 18 17 16 14 12 9 7 7 4 3 1 2 2 1 6 5 6 9 7 5 4 2 2 2 4 4 3 4 2 10 8 11 4 3 6 5 8 14 7 10 16 16 18 12
Wind_Direction
221 224 223 220 223 218 220 220 221 223 224 222 211 211 219 228 239 260 279 293 299 302 311 319 328 331 320 267 262 132 189 223 264 260 268 275 269 282 272 268 263 261 267 280 287 276 277
218 217 221 218 218 221 220 220 220 219 219 216 207 209 214 216 227 250 270 289 298 303 309 319 320 317 267 277 267 191 217 266 267 273 278 270 262 266 282 283 283 284 290 286 291 288 282
217 216 219 219 215 219 220 218 219 216 211 209 205 208 210 212 216 239 266 284 296 304 309 310 304 286 264 254 285 291 271 276 276 270 268 275 283 270 279 275 250 274 276 274 260 265 267
219 218 216 217 217 217 218 219 216 214 208 203 202 204 210 210 214 237 265 282 291 295 300 297 280 265 263 269 284 286 266 255 227 261 258 268 277 274 271 264 275 270 269 267 270 253 245
218 218 217 216 214 216 216 216 215 218 207 197 197 197 204 207 211 230 265 284 288 289 285 268 247 219 272 151 230 229 246 267 269 252 248 266 261 245 257 239 262 252 257 260 267 264 247
218 217 216 216 215 214 215 213 216 214 208 197 195 193 192 199 204 230 272 284 288 289 243 235 252 271 240 256 291 323 289 260 251 267 236 216 245 248 231 246 249 264 251 247 248 253 234
221 218 216 215 213 213 213 212 212 211 206 197 195 188 182 189 199 220 297 253 248 225 223 220 197 228 235 228 283 254 257 249 253 253 252 250 232 238 250 244 244 260 272 279 285 295 299
219 220 219 217 213 210 210 211 207 203 200 190 183 176 169 177 223 170 169 231 258 9 292 228 251 256 263 292 282 267 251 247 237 246 248 242 246 248 252 268 284 288 287 285 288 293 288
218 214 214 216 215 211 210 210 205 195 186 177 175 165 167 164 178 212 189 236 3 342 265 259 247 246 237 245 248 265 241 235 243 260 259 260 259 257 261 268 257 265 272 277 280 289 287
213 210 208 211 214 213 210 207 200 186 171 168 161 150 160 137 141 212 181 203 37 30 280 258 214 237 206 220 254 229 234 248 232 249 260 260 259 252 257 265 264 275 277 279 286 291 282
224 216 211 210 207 206 208 205 181 171 164 161 153 158 153 182 19 142 124 45 66 67 252 173 152 115 174 199 66 180 183 207 243 243 208 249 261 244 262 272 294 289 325 311 294 281 291
209 206 205 205 210 206 200 195 174 169 163 155 153 158 158 208 193 130 112 107 98 164 228 210 160 188 188 208 228 159 190 224 280 270 268 267 280 289 271 273 279 296 291 283 274 272 260
203 206 205 205 210 207 201 171 167 165 154 147 150 153 159 190 145 112 100 146 134 215 202 182 191 184 201 194 219 208 219 215 231 227 257 266 257 252 244 259 240 267 265 278 260 235 239
207 208 201 202 206 209 169 149 144 145 139 138 129 138 130 67 90 87 149 162 195 193 198 282 183 183 211 212 200 235 229 257 236 256 267 275 276 257 7 339 314 277 296 276 291 287 291
206 201 194 178 157 139 137 133 136 137 132 127 120 81 62 115 111 194 168 188 184 224 220 201 156 211 212 229 211 230 230 258 299 319 300 291 263 315 324 350 336 318 286 307 307 297 288
169 150 139 137 137 136 138 138 136 133 128 123 131 153 167 156 164 182 235 161 192 8 54 28 185 234 254 218 191 210 238 45 28 29 7 352 306 293 306 319 275 256 308 304 292 282 273
137 138 137 138 138 137 137 133 132 134 137 159 126 129 114 176 168 206 203 180 179 138 51 38 233 257 259 313 308 280 258 309 349 331 320 308 282 281 283 276 287 290 286 288 310 271 264
131 131 131 134 134 135 135 135 141 149 160 162 140 118 90 245 174 162 191 191 254 168 148 245 317 312 287 298 287 263 260 254 312 308 296 304 305 290 278 288 290 291 288 277 251 270 259
119 127 129 130 130 131 134 146 155 161 163 134 95 106 63 310 159 158 186 211 205 207 186 182 226 227 251 248 260 263 270 299 351 337 46 357 265 288 288 276 256 246 254 259 264 260 262
117 118 124 127 132 137 147 154 152 155 177 55 100 120 107 284 321 175 180 198 177 332 293 246 297 297 280 262 256 258 286 298 317 276 123 269 267 264 269 281 295 293 294 292 286 281 282
122 126 136 136 139 145 150 147 147 150 149 314 43 123 163 158 213 177 190 185 208 179 218 181 233 246 251 248 260 261 263 271 290 306 258 242 271 279 271 274 282 282 278 274 276 278 273
98 106 112 122 130 139 143 142 138 145 172 85 117 123 166 152 176 191 182 187 204 204 201 208 235 284 12 274 291 306 312 295 283 295 290 290 285 282 276 277 279 278 274 277 277 274 277
102 109 118 120 124 132 132 137 130 104 66 84 3 91 146 137 168 180 206 211 211 201 222 238 225 231 245 260 278 308 303 287 277 280 275 269 268 270 272 278 285 277 271 277 276 267 267
118 112 112 119 128 128 127 122 105 75 76 121 148 162 120 165 176 189 183 210 230 208 242 225 232 248 266 329 308 285 271 266 261 257 251 258 257 262 268 282 268 274 270 263 276 288 299
111 119 122 119 115 116 114 105 90 78 38 107 124 196 127 178 188 192 225 225 238 235 222 256 286 288 343 299 284 275 257 249 249 249 250 239 247 257 257 256 267 276 272 268 279 285 287
94 96 103 109 115 115 108 105 87 58 32 356 78 18 64 266 200 199 203 191 207 228 232 228 225 152 206 245 237 243 251 284 277 293 296 244 248 230 241 261 261 269 292 269 263 260 286
89 96 100 104 113 118 112 105 97 83 49 0 91 348 67 167 228 190 184 206 235 212 249 173 201 207 212 236 245 251 262 269 268 273 278 281 285 234 249 259 267 272 287 323 271 307 2
91 94 97 101 107 112 114 114 104 84 61 38 88 33 13 219 202 175 204 212 218 189 215 136 245 219 211 236 256 261 257 266 280 276 282 269 267 281 302 277 251 5 331 306 318 320 336
96 98 99 98 103 111 119 123 123 117 108 50 96 81 38 21 321 348 310 296 258 242 210 166 292 355 245 254 251 312 277 304 281 281 279 285 259 295 287 291 294 240 246 298 304 301 298